Year,Month,Day,Hour,Minute,Value (Times are PST for temperature in C)
2017,09,02,00,26,14.80
2017,09,02,00,27,14.80
2017,09,02,00,28,14.80
2017,09,02,00,29,14.80
2017,09,02,01,26,14.10
2017,09,02,01,27,14.10
2017,09,02,01,28,14.10
2017,09,02,01,29,14.10
2017,09,02,02,26,14.20
2017,09,02,02,27,14.20
2017,09,02,02,28,14.20
2017,09,02,02,29,14.20
2017,09,02,03,26,14.40
2017,09,02,03,27,14.40
2017,09,02,03,28,14.40
2017,09,02,03,29,14.40
2017,09,02,04,26,14.00
2017,09,02,04,27,14.00
2017,09,02,04,28,14.00
2017,09,02,04,29,14.00
2017,09,02,05,26,13.70
2017,09,02,05,27,13.70
2017,09,02,05,28,13.70
2017,09,02,05,29,13.70
2017,09,02,06,26,13.70
2017,09,02,06,27,13.70
2017,09,02,06,28,13.70
2017,09,02,06,29,13.70
2017,09,02,07,26,14.40
2017,09,02,07,27,14.40
2017,09,02,07,28,14.50
2017,09,02,07,29,14.50
2017,09,02,08,26,17.30
2017,09,02,08,27,17.30
2017,09,02,08,28,17.30
2017,09,02,08,29,17.30
2017,09,02,09,26,21.40
2017,09,02,09,27,21.40
2017,09,02,09,28,21.60
2017,09,02,09,29,21.60
2017,09,02,10,26,22.10
2017,09,02,10,27,22.10
2017,09,02,10,28,22.10
2017,09,02,10,29,22.10
2017,09,02,11,26,20.70
2017,09,02,11,27,20.80
2017,09,02,11,28,20.80
2017,09,02,11,29,20.90
2017,09,02,12,26,24.30
2017,09,02,12,27,24.40
2017,09,02,12,28,24.40
2017,09,02,12,29,24.50
2017,09,02,13,26,24.50
2017,09,02,13,27,24.40
2017,09,02,13,28,24.40
2017,09,02,13,29,24.30
2017,09,02,14,26,23.80
2017,09,02,14,27,23.80
2017,09,02,14,28,23.70
2017,09,02,14,29,23.70
2017,09,02,15,26,22.00
2017,09,02,15,27,21.80
2017,09,02,15,28,21.60
2017,09,02,15,29,21.60
2017,09,02,16,26,19.10
2017,09,02,16,27,19.10
2017,09,02,16,28,19.10
2017,09,02,16,29,19.10
2017,09,02,17,26,19.80
2017,09,02,17,27,19.80
2017,09,02,17,28,19.70
2017,09,02,17,29,19.70
2017,09,02,18,26,18.90
2017,09,02,18,27,18.90
2017,09,02,18,28,18.80
2017,09,02,18,29,18.70
2017,09,02,19,26,17.40
2017,09,02,19,27,17.40
2017,09,02,19,28,17.40
2017,09,02,19,29,17.40
2017,09,02,20,26,16.20
2017,09,02,20,27,16.20
2017,09,02,20,28,16.20
2017,09,02,20,29,16.20
2017,09,02,21,26,15.30
2017,09,02,21,27,15.30
2017,09,02,21,28,15.30
2017,09,02,21,29,15.30
2017,09,02,22,26,14.80
2017,09,02,22,27,14.80
2017,09,02,22,28,14.80
2017,09,02,22,29,14.80
2017,09,02,23,26,14.70
2017,09,02,23,27,14.70
2017,09,02,23,28,14.70
2017,09,02,23,29,14.70
